This is the latest recevied weather packets stored in our database for station/object KJ4YLO. If no packets are shown the sender has not sent any weather packets the latest 10 day(s).
| Time | Temp. | Humidity | Pressure | Rain* | Wind** | Luminosity | Snow |
|---|---|---|---|---|---|---|---|
| 1777731398 | 15.56° C | 67% | 1014.1 hPa | 0 mm | - | 103 W/m² | - |
| 1777731095 | 15.56° C | 67% | 1013.8 hPa | 0 mm | - | 97 W/m² | - |
| 1777730794 | 15.56° C | 67% | 1014.1 hPa | 0 mm | - | 106 W/m² | - |
| 1777730490 | 15.56° C | 67% | 1014.5 hPa | 0 mm | - | 107 W/m² | - |
| 1777730186 | 15.56° C | 66% | 1014.1 hPa | 0 mm | - | 88 W/m² | - |
| 1777729883 | 16.11° C | 67% | 1014.1 hPa | 0 mm | - | 138 W/m² | - |
| 1777729580 | 15.56° C | 67% | 1013.8 hPa | 0 mm | - | 188 W/m² | - |
| 1777729276 | 15° C | 68% | 1013.8 hPa | 0 mm | - | 151 W/m² | - |
| 1777728973 | 15° C | 69% | 1013.8 hPa | 0 mm | - | 127 W/m² | - |
| 1777728670 | 15° C | 70% | 1013.8 hPa | 0 mm | - | 147 W/m² | - |
| 1777728367 | 15° C | 71% | 1013.8 hPa | 0 mm | - | 111 W/m² | - |
| 1777728064 | 15° C | 70% | 1013.8 hPa | 0 mm | - | 86 W/m² | - |
| 1777727760 | 15° C | 72% | 1013.8 hPa | 0 mm | - | 86 W/m² | - |
| 1777727458 | 15° C | 72% | 1013.5 hPa | 0 mm | - | 87 W/m² | - |
| 1777727155 | 14.44° C | 72% | 1013.5 hPa | 0 mm | - | 83 W/m² | - |
| 1777726853 | 14.44° C | 73% | 1013.8 hPa | 0 mm | - | 104 W/m² | - |
| 1777726549 | 13.89° C | 75% | 1013.8 hPa | 0 mm | - | 98 W/m² | - |
| 1777726246 | 13.89° C | 77% | 1013.8 hPa | 0 mm | - | 100 W/m² | - |
| 1777725943 | 13.89° C | 79% | 1013.8 hPa | 0 mm | - | 81 W/m² | - |
| 1777725640 | 13.89° C | 80% | 1013.8 hPa | 0 mm | - | 73 W/m² | - |
| 1777725338 | 13.33° C | 80% | 1013.5 hPa | 0 mm | - | 65 W/m² | - |
| 1777725034 | 13.33° C | 82% | 1013.8 hPa | 0 mm | - | 60 W/m² | - |
| 1777724731 | 13.33° C | 83% | 1013.8 hPa | 0 mm | - | 70 W/m² | - |
| 1777724429 | 12.78° C | 83% | 1014.1 hPa | 0 mm | - | 51 W/m² | - |
| 1777724126 | 12.78° C | 83% | 1013.8 hPa | 0 mm | - | 43 W/m² | - |
* Rain latest hour (hover to see other rain measurements)
** Current wind speed in m/s (hover to see current wind gust speed)